星链-33805 (STARLINK-33805)

导读

STARLINK-33805是美国太空探索技术公司(SpaceX)于2025年4月14日发射的星链(Starlink)低轨宽带卫星,属于SpaceX打造的全球卫星互联网星座组网卫星。星链星座通过在近地轨道部署数千颗小型卫星,可为全球偏远地区、海上等传统通信覆盖不足区域提供高速低延迟宽带互联网接入服务,该卫星的发射进一步扩充了星链星座的网络覆盖与服务能力。

基本信息
目录编号:
63590
目录名称:
STARLINK-33805
国际标识:
2025-076X
轨道中心:
EARTH
卫星名称:
星链-33805
卫星全名:
星链-33805 (STARLINK-33805)
卫星状态:
在轨 (已飞行426 天)
发射日期:
2025-04-14 UTC
国别 :
美国 (US)
星等 :
--
轨道信息
数据来源 国际轨道数据
星历时间: 2026-06-13T23:51:26+0800
14小时前
查看轨道信息
半长轴: 6861.128km
偏心率: 0.0001604
轨道倾角: 42.996°
近地点辐角 300.745°
升交点赤经 140.063°
平近点角 59.324°
近地点: 481.89km
远地点: 484.092km
周期: 94.266分钟
每日圈数: 15.275995
详细信息
固有亮度:
5
最大亮度:
2.5
卫星平台:
Starlink V1.0
覆盖范围:
全球
运营商:
太空探索技术公司
运营商所在国:
美国
制造商(研发单位):
太空探索技术公司
制造商所在国:
美国
使用方式:
暂无
卫星简介
Starlink 计划是 SpaceX 推出的全球卫星互联网项目,通过发射低轨道卫星,为全球尤其是偏远地区提供高速、低延迟的互联网服务。自 2019 年起,Starlink 已部署数千颗卫星,旨在缩小全球数字鸿沟,推动互联网普及。该项目还为军事、航空等行业提供通信支持,带来广泛经济效益。
2D轨道图
3D轨道图
轨道高度分析图
轨道倾角分析图
轨道综合分析图
查看轨道综合分析图